When you browse on this site, cookies collect data to enhance your experience and personalize the content and advertising you see.
Visit our Privacy Policy to learn more. By continuing to use the site, you agree to this use of cookies and data.
  • In Romania
  • List of Countries
  • For 7 days
  • Water Temperature
  • Weather Map
  • Weather Widgets
  • user-avatar
    Login

    Hourly Weather Hartford

    Today, 3 June, Wednesday

    Time Temperature Precipitation Wind Pressure Humidity
    00:00 +15°C° 0 mm 2 mps 756 mmHg 67%
    01:00 +15°C° 0 mm 2 mps 756 mmHg 69%
    02:00 +15°C° 0 mm 2 mps 755 mmHg 71%
    03:00 +15°C° 0 mm 2 mps 754 mmHg 74%
    04:00 +15°C° 0.6 mm 2 mps 754 mmHg 78%
    05:00 +13°C° 0.6 mm 3 mps 754 mmHg 83%
    06:00 +13°C° 0.6 mm 3 mps 754 mmHg 88%
    07:00 +13°C° 1.5 mm 3 mps 754 mmHg 88%
    08:00 +12°C° 1.5 mm 4 mps 754 mmHg 89%
    09:00 +12°C° 1.5 mm 4 mps 754 mmHg 89%
    10:00 +12°C° 0.4 mm 4 mps 754 mmHg 88%
    11:00 +12°C° 0.4 mm 4 mps 754 mmHg 87%
    12:00 +12°C° 0.4 mm 5 mps 754 mmHg 85%
    13:00 +12°C° 0.1 mm 4 mps 754 mmHg 84%
    14:00 +12°C° 0.1 mm 4 mps 754 mmHg 82%
    15:00 +12°C° 0.1 mm 4 mps 754 mmHg 81%
    16:00 +12°C° 0 mm 4 mps 754 mmHg 78%
    17:00 +12°C° 0 mm 3 mps 754 mmHg 76%
    18:00 +12°C° 0 mm 3 mps 754 mmHg 74%
    19:00 +12°C° 0 mm 3 mps 754 mmHg 73%
    20:00 +11°C° 0 mm 3 mps 754 mmHg 72%
    21:00 +11°C° 0 mm 3 mps 754 mmHg 71%
    22:00 +10°C° 0 mm 3 mps 754 mmHg 74%
    23:00 +10°C° 0 mm 3 mps 753 mmHg 76%

    Tomorrow, 4 June, Thursday

    Time Temperature Precipitation Wind Pressure Humidity
    00:00 +10°C° 0 mm 3 mps 753 mmHg 79%
    01:00 +9°C° 0 mm 3 mps 753 mmHg 80%
    02:00 +9°C° 0 mm 3 mps 752 mmHg 81%
    03:00 +9°C° 0 mm 3 mps 752 mmHg 82%
    04:00 +9°C° 0 mm 3 mps 752 mmHg 80%
    05:00 +10°C° 0 mm 3 mps 751 mmHg 77%
    06:00 +10°C° 0 mm 3 mps 751 mmHg 74%
    07:00 +11°C° 0 mm 3 mps 751 mmHg 68%
    08:00 +12°C° 0 mm 4 mps 751 mmHg 62%
    09:00 +13°C° 0 mm 4 mps 750 mmHg 56%
    10:00 +13°C° 0.1 mm 4 mps 750 mmHg 56%
    11:00 +13°C° 0.1 mm 4 mps 750 mmHg 57%
    12:00 +14°C° 0.1 mm 5 mps 749 mmHg 58%
    13:00 +14°C° 0.1 mm 5 mps 749 mmHg 57%
    14:00 +14°C° 0.1 mm 5 mps 748 mmHg 56%
    15:00 +14°C° 0.1 mm 5 mps 748 mmHg 56%
    16:00 +14°C° 0 mm 5 mps 747 mmHg 59%
    17:00 +14°C° 0 mm 5 mps 747 mmHg 63%
    18:00 +13°C° 0 mm 4 mps 747 mmHg 67%
    19:00 +12°C° 0.4 mm 4 mps 747 mmHg 73%
    20:00 +11°C° 0.4 mm 4 mps 747 mmHg 80%
    21:00 +10°C° 0.4 mm 4 mps 746 mmHg 86%
    22:00 +10°C° 0.1 mm 4 mps 746 mmHg 87%
    23:00 +8°C° 0.1 mm 4 mps 746 mmHg 87%

    Day after tomorrow, 5 June, Friday

    Time Temperature Precipitation Wind Pressure Humidity
    00:00 +8°C° 0.1 mm 4 mps 745 mmHg 88%
    01:00 +8°C° 0.2 mm 4 mps 745 mmHg 88%
    02:00 +9°C° 0.2 mm 3 mps 745 mmHg 88%
    03:00 +9°C° 0.2 mm 3 mps 745 mmHg 89%
    04:00 +9°C° 0.3 mm 3 mps 745 mmHg 88%
    05:00 +9°C° 0.3 mm 3 mps 745 mmHg 87%
    06:00 +8°C° 0.3 mm 4 mps 745 mmHg 85%
    07:00 +8°C° 0.1 mm 4 mps 745 mmHg 79%
    08:00 +9°C° 0.1 mm 5 mps 745 mmHg 73%
    09:00 +10°C° 0.1 mm 5 mps 745 mmHg 66%
    10:00 +10°C° 0.2 mm 6 mps 745 mmHg 63%
    11:00 +11°C° 0.2 mm 7 mps 744 mmHg 60%
    12:00 +12°C° 0.2 mm 8 mps 744 mmHg 56%
    13:00 +12°C° 0.2 mm 9 mps 744 mmHg 54%
    14:00 +12°C° 0.2 mm 9 mps 744 mmHg 51%
    15:00 +12°C° 0.2 mm 9 mps 743 mmHg 49%
    16:00 +12°C° 0.1 mm 9 mps 743 mmHg 51%
    17:00 +11°C° 0.1 mm 9 mps 743 mmHg 54%
    18:00 +10°C° 0.1 mm 9 mps 743 mmHg 56%
    19:00 +10°C° 0 mm 9 mps 743 mmHg 57%
    20:00 +9°C° 0 mm 8 mps 744 mmHg 59%
    21:00 +7°C° 0 mm 8 mps 744 mmHg 60%
    22:00 +7°C° 0 mm 8 mps 743 mmHg 61%
    23:00 +7°C° 0 mm 8 mps 743 mmHg 62%

    6 June, Saturday

    Time Temperature Precipitation Wind Pressure Humidity
    00:00 +7°C° 0 mm 9 mps 743 mmHg 63%
    01:00 +7°C° 0.3 mm 9 mps 742 mmHg 71%
    02:00 +6°C° 0.3 mm 9 mps 742 mmHg 79%
    03:00 +6°C° 0.3 mm 9 mps 742 mmHg 87%
    04:00 +6°C° 0.8 mm 9 mps 741 mmHg 89%
    05:00 +6°C° 0.8 mm 9 mps 741 mmHg 90%
    06:00 +6°C° 0.8 mm 9 mps 741 mmHg 91%
    07:00 +7°C° 0.9 mm 8 mps 741 mmHg 89%
    08:00 +9°C° 0.9 mm 7 mps 741 mmHg 87%
    09:00 +10°C° 0.9 mm 6 mps 741 mmHg 85%
    10:00 +11°C° 0.4 mm 7 mps 741 mmHg 82%
    11:00 +12°C° 0.4 mm 8 mps 741 mmHg 79%
    12:00 +12°C° 0.4 mm 9 mps 741 mmHg 76%
    13:00 +12°C° 0.4 mm 9 mps 741 mmHg 78%
    14:00 +11°C° 0.4 mm 8 mps 741 mmHg 80%
    15:00 +11°C° 0.4 mm 8 mps 741 mmHg 82%
    16:00 +11°C° 0.5 mm 8 mps 741 mmHg 82%
    17:00 +11°C° 0.5 mm 7 mps 742 mmHg 82%
    18:00 +11°C° 0.5 mm 7 mps 742 mmHg 82%
    19:00 +10°C° 0.2 mm 6 mps 743 mmHg 82%
    20:00 +10°C° 0.2 mm 5 mps 744 mmHg 83%
    21:00 +10°C° 0.2 mm 4 mps 744 mmHg 84%
    22:00 +10°C° 0 mm 4 mps 745 mmHg 84%
    23:00 +10°C° 0 mm 3 mps 745 mmHg 84%

    7 June, Sunday

    Time Temperature Precipitation Wind Pressure Humidity
    00:00 +9°C° 0 mm 3 mps 745 mmHg 85%
    01:00 +9°C° 0 mm 3 mps 745 mmHg 86%
    02:00 +9°C° 0 mm 3 mps 746 mmHg 88%
    03:00 +9°C° 0 mm 3 mps 746 mmHg 90%
    04:00 +10°C° 0 mm 4 mps 746 mmHg 89%
    05:00 +10°C° 0 mm 5 mps 746 mmHg 89%
    06:00 +10°C° 0 mm 6 mps 746 mmHg 88%
    07:00 +11°C° 0.2 mm 6 mps 746 mmHg 88%
    08:00 +12°C° 0.2 mm 5 mps 746 mmHg 87%
    09:00 +13°C° 0.2 mm 5 mps 746 mmHg 86%
    10:00 +13°C° 0.2 mm 6 mps 746 mmHg 84%
    11:00 +14°C° 0.2 mm 6 mps 747 mmHg 81%
    12:00 +14°C° 0.2 mm 7 mps 747 mmHg 78%
    13:00 +14°C° 0.4 mm 7 mps 747 mmHg 80%
    14:00 +13°C° 0.4 mm 6 mps 747 mmHg 83%
    15:00 +13°C° 0.4 mm 6 mps 748 mmHg 85%
    16:00 +11°C° 0.6 mm 6 mps 748 mmHg 87%
    17:00 +11°C° 0.6 mm 6 mps 748 mmHg 89%
    18:00 +11°C° 0.6 mm 6 mps 748 mmHg 91%
    19:00 +12°C° 0.1 mm 5 mps 749 mmHg 90%
    20:00 +12°C° 0.1 mm 5 mps 750 mmHg 89%
    21:00 +12°C° 0.1 mm 4 mps 750 mmHg 88%
    22:00 +12°C° 0 mm 4 mps 751 mmHg 87%
    23:00 +12°C° 0 mm 4 mps 751 mmHg 87%

    8 June, Monday

    Time Temperature Precipitation Wind Pressure Humidity
    00:00 +12°C° 0 mm 4 mps 751 mmHg 87%
    01:00 +12°C° 0 mm 4 mps 752 mmHg 87%
    02:00 +11°C° 0 mm 3 mps 752 mmHg 86%
    03:00 +11°C° 0 mm 3 mps 752 mmHg 86%
    04:00 +11°C° 0 mm 3 mps 753 mmHg 86%
    05:00 +12°C° 0 mm 3 mps 753 mmHg 86%
    06:00 +12°C° 0 mm 3 mps 754 mmHg 85%
    07:00 +13°C° 0 mm 3 mps 754 mmHg 82%
    08:00 +13°C° 0 mm 4 mps 755 mmHg 78%
    09:00 +14°C° 0 mm 4 mps 755 mmHg 75%
    10:00 +14°C° 0.3 mm 3 mps 755 mmHg 75%
    11:00 +14°C° 0.3 mm 3 mps 756 mmHg 76%
    12:00 +16°C° 0.3 mm 3 mps 756 mmHg 77%
    13:00 +16°C° 0.2 mm 3 mps 756 mmHg 74%
    14:00 +17°C° 0.2 mm 4 mps 756 mmHg 72%
    15:00 +17°C° 0.2 mm 4 mps 756 mmHg 70%
    16:00 +17°C° 0.1 mm 4 mps 756 mmHg 72%
    17:00 +15°C° 0.1 mm 4 mps 757 mmHg 73%
    18:00 +15°C° 0.1 mm 4 mps 757 mmHg 75%
    19:00 +14°C° 0 mm 3 mps 757 mmHg 78%
    20:00 +14°C° 0 mm 2 mps 758 mmHg 80%
    21:00 +13°C° 0 mm 2 mps 758 mmHg 83%
    22:00 +12°C° 0 mm 2 mps 758 mmHg 84%
    23:00 +11°C° 0 mm 1 mps 759 mmHg 84%
    Show more